Miscellaneous Local Product
Issued by NWS North Platte, NE

Home | Current Version | Previous Version | Graphics & Text | Print | Product List | Glossary On
Versions: 1 2 3 4 5 6 7 8 9 10 11 12 13 14 15 16 17 18 19 20 21 22 23 24 25 26 27 28 29 30 31 32 33 34 35 36 37 38 39 40 41 42 43 44 45 46 47 48 49 50
000
AXUS43 KLBF 270510
MISLBF


WESTERN AND NORTH CENTRAL NEBRASKA HOURLY WEATHER ROUNDUP
NATIONAL WEATHER SERVICE NORTH PLATTE NE
1200 AM CDT MON JUL 27 2015

***STATIONS NOT REPORTING VARIABLES SUCH AS SKY/WEATHER OR
PRESSURE ARE PROVIDED BY THE NEBRASKA DEPARTMENT OF
ROADS...RAWS...AND APRS NETWORKS...AND ARE NOT UNDER
NATIONAL WEATHER SERVICE QUALITY CONTROL***

...OBSERVATIONS IN AND NEAR THE EASTERN PANHANDLE OF NEBRASKA...

CITY           SKY/WX    TMP DP  RH WIND       PRES   REMARKS
PINE RIDGE     CLEAR     75  52  44 S21G31    29.89F
CHADRON        CLEAR     75  55  49 S22G31    29.88S
ALLIANCE       PTCLDY    64  57  78 S8        29.96S
SIDNEY         CLOUDY    63  61  93 SE8       30.01S
BIG SPRINGS      N/A     64  62  93 CALM        N/A
$$

...OBSERVATIONS IN NORTH CENTRAL NEBRASKA...

CITY           SKY/WX    TMP DP  RH WIND       PRES   REMARKS
VALENTINE      CLOUDY    74  62  66 S16       29.90R
THEDFORD       CLOUDY    74  60  62 S13G20    29.93R
AINSWORTH      CLOUDY    75  65  72 S14       29.91F
O`NEILL        CLOUDY    77  74  91 SE9       29.88F
ORD            LGT RAIN  75  65  70 N12       29.93R
BROKEN BOW     CLOUDY    71  66  84 SE3       29.93R
SPRINGVIEW       N/A     72  65  80 SE6         N/A
CHAMBERS         N/A     73  67  81 W6          N/A
EWING            N/A     77  75  93 S3          N/A
$$

...OBSERVATIONS IN SOUTHWEST NEBRASKA AND FAR NORTHEAST COLORADO...

CITY           SKY/WX    TMP DP  RH WIND       PRES   REMARKS
WRAY           FAIR      66  64  91 E3        30.00S
HOLYOKE        FAIR      64  63  94 S6        30.00R
IMPERIAL       CLOUDY    68  62  81 S10       29.99R
OGALLALA       CLOUDY    65  64  94 CALM      29.98R
NORTH PLATTE   CLOUDY    73  58  59 SE6       29.89F
MCCOOK         CLOUDY    71  62  73 SE18G31   29.91R
LEXINGTON      TSTM      70  67  89 SW6       29.99S
PAXTON           N/A     67  64  89 CALM        N/A
BRADY            N/A     72  61  68 NE3G16      N/A
CALLAWAY         N/A     67  65  94 SE14        N/A
$$

...NORTH PLATTE AREA...

CITY           SKY/WX    TMP DP  RH WIND       PRES   REMARKS
AIRPORT        CLOUDY    73  58  59 SE6       29.89F
DOWNTOWN         N/A     68  65  89 CALM        N/A
HILLCREST        N/A     69  63  82 E3          N/A
$$

...SOME WEATHER OBSERVATIONS FROM AROUND THE REGION...

CITY           SKY/WX    TMP DP  RH WIND       PRES   REMARKS
DENVER         CLOUDY    70  58  65 E17       30.02F
LARAMIE        CLEAR     62  51  67 S24G30    30.12F
CHEYENNE       PTCLDY    63  54  72 S9        30.11R
SCOTTSBLUFF    CLEAR     67  59  75 SE12      29.96R
RAPID CITY     CLEAR     73  58  59 SE13      29.87R
PIERRE         CLEAR     74  69  85 SE10      29.84F
WINNER         FAIR      78  59  51 S10       29.86R
SIOUX FALLS    CLOUDY    73  68  84 E5        29.91F
OMAHA          CLOUDY    81  77  88 SE6       29.87F
GRAND ISLAND   CLOUDY    79  77  94 SE5       29.92R
KANSAS CITY    PTCLDY    83  77  82 E6        29.91R HX  92
WICHITA        PTCLDY    82  72  71 S10       29.92R
HAYS           CLOUDY    72  61  68 NW30G41   30.04R
LIBERAL        CLOUDY    81  64  57 S10       29.94R
GOODLAND       CLOUDY    66  62  87 SE10      30.00S
$$



USA.gov is the U.S. government's official web portal to all federal, state and local government web resources and services.